EHI
0 0 0 0 0 0 0 0 0 0 0 1 3 7 8 6 6 4 4 10 28 45 43 37 35 33 27 20 16 17 18 17 18 19 21 23 25 26 23 18 12 7 3 1 0 1 2 2 1
0 0 0 0 0 0 0 0 0 0 0 1 5 9 10 12 13 10 10 20 40 55 56 48 45 43 35 23 13 12 14 14 14 14 15 16 19 21 19 14 9 5 2 0 0 0 1 1 0
0 0 0 0 0 0 0 0 0 0 0 3 7 10 10 13 16 16 23 40 56 66 67 63 60 56 46 30 16 11 11 11 9 8 8 8 10 12 11 8 5 3 1 0 0 0 0 0 0
0 0 0 0 0 0 0 0 0 0 1 5 10 11 12 16 22 30 46 61 67 69 72 74 72 65 54 40 26 17 12 8 5 4 4 4 4 4 4 3 2 1 1 0 0 0 0 0 0
0 0 0 0 0 0 0 0 0 0 2 8 13 16 20 26 37 52 63 68 69 71 76 82 82 75 63 50 36 25 16 9 4 2 3 3 1 1 1 1 0 0 0 0 0 0 0 0 0
0 0 0 0 0 0 0 0 0 0 2 8 13 18 25 34 45 58 64 65 69 75 81 86 85 79 70 57 45 35 26 17 9 5 3 2 1 0 0 0 0 0 0 0 0 0 0 0 0
0 0 0 0 0 0 0 0 0 0 3 7 12 17 23 29 39 53 64 69 74 80 84 87 84 78 72 63 53 44 37 28 20 12 5 1 0 0 0 0 0 0 0 0 0 0 0 0 0
0 0 0 0 0 0 0 0 0 1 3 7 10 15 20 27 38 56 70 77 79 80 83 85 84 80 76 69 58 49 44 38 30 19 9 2 0 0 0 0 0 0 0 0 0 0 0 0 0
0 0 0 0 0 0 0 0 0 1 3 5 8 15 25 36 48 62 74 79 80 81 83 85 87 86 85 77 64 55 50 46 37 25 13 6 1 0 0 0 0 0 0 0 0 0 0 0 0
0 0 0 0 0 0 0 0 0 1 2 4 10 21 34 47 56 64 71 75 78 81 83 87 89 90 90 85 75 66 60 54 43 31 20 11 4 1 0 0 0 0 0 0 0 0 0 0 0
0 0 0 0 0 0 0 0 0 0 1 4 13 25 38 48 55 60 63 68 75 79 80 81 82 85 86 85 81 74 66 58 46 35 26 15 6 2 1 0 0 0 0 0 0 0 0 0 0
0 0 0 0 0 0 0 0 0 0 1 5 12 23 35 44 49 54 57 63 70 75 73 69 66 66 69 74 75 70 64 55 44 35 27 17 7 2 1 0 1 0 0 0 0 0 0 0 0
0 0 0 0 0 0 0 0 0 1 3 6 12 22 32 39 43 49 56 61 67 70 66 57 50 46 47 54 60 58 53 46 36 29 23 15 7 2 1 1 1 0 0 0 0 0 0 0 0
0 0 0 0 0 0 0 0 0 2 4 7 12 19 27 33 36 43 52 58 61 63 59 48 39 35 35 39 44 44 42 37 28 21 17 12 6 2 2 2 1 0 0 0 0 0 0 0 0
0 0 0 0 0 0 0 0 1 3 6 9 11 16 21 26 30 37 45 50 53 56 53 44 35 31 31 32 35 35 33 29 21 15 13 10 6 3 3 3 1 0 0 0 0 0 0 0 0
0 0 0 0 0 0 0 1 2 5 8 10 12 16 20 24 27 31 39 44 46 49 48 41 34 30 28 29 31 30 25 21 17 14 11 8 5 4 4 3 1 0 0 0 0 0 0 0 0
0 0 0 0 0 0 1 3 5 6 8 11 15 19 23 26 27 29 35 41 41 39 38 34 31 28 27 29 30 25 19 16 13 12 11 8 6 5 5 3 1 0 0 0 0 0 0 0 0
0 0 0 0 0 1 3 5 6 5 6 11 18 22 25 27 29 31 34 36 34 30 28 27 25 25 27 32 32 24 17 13 11 10 9 8 8 7 6 4 1 0 0 0 0 0 0 0 0
0 0 0 0 1 2 4 5 4 4 5 11 19 24 26 28 31 32 31 30 29 25 22 21 20 20 24 29 28 21 16 12 7 5 4 5 6 7 6 5 3 1 0 0 0 0 0 0 0
0 0 0 0 1 2 4 4 4 5 8 12 17 22 25 26 28 26 23 23 23 21 18 16 17 18 21 23 22 18 15 10 5 2 1 1 2 3 4 5 4 2 1 0 0 0 0 0 0
0 0 0 0 0 1 2 3 4 6 9 11 14 18 20 21 21 18 14 12 14 14 13 13 15 18 20 21 19 16 13 8 5 3 2 1 1 1 2 4 4 2 1 0 0 0 0 0 0
0 0 0 0 0 0 1 1 3 5 7 9 10 12 14 15 15 13 10 6 6 8 10 11 13 16 18 18 16 13 10 7 5 3 2 2 2 2 2 3 3 1 0 0 0 0 0 0 0
0 0 0 0 0 0 0 0 1 2 3 4 5 8 10 12 13 12 9 7 7 7 8 9 11 12 12 12 11 9 7 5 4 3 1 1 1 1 2 2 2 1 0 0 0 0 0 0 0
0 0 0 0 0 0 0 0 0 0 1 1 3 5 6 7 9 9 7 7 9 9 8 8 9 8 7 6 6 4 4 3 2 2 1 0 0 0 0 1 1 1 0 0 0 0 0 0 0
0 0 0 0 0 0 0 0 0 0 0 1 2 3 3 3 4 5 5 6 8 9 8 7 6 5 4 3 2 1 2 1 1 1 0 0 0 0 0 0 0 0 0 0 0 0 0 0 0
0 0 0 0 0 0 0 0 0 0 0 0 1 1 1 2 2 2 3 5 6 7 6 5 5 4 2 1 0 0 0 0 0 0 0 0 0 0 0 0 0 0 0 0 0 0 0 0 0
0 0 0 0 0 0 0 0 0 0 0 0 0 1 1 2 2 2 2 3 4 4 4 4 5 4 1 0 0 0 0 0 0 0 0 0 0 0 0 0 0 0 0 0 0 0 0 0 0
0 0 0 0 0 0 0 0 0 0 0 0 0 1 2 3 2 2 2 3 3 3 3 4 4 3 1 0 0 0 0 0 0 0 0 0 0 0 0 0 0 0 0 0 0 0 0 0 0
0 0 0 0 0 0 0 0 0 0 0 0 0 1 1 2 2 2 2 3 3 3 3 3 2 1 0 0 0 0 0 0 0 0 0 0 0 0 0 0 0 0 0 0 0 0 0 0 0
0 0 0 0 0 0 0 0 0 0 0 0 0 0 0 1 1 1 2 3 3 3 2 1 1 0 0 0 0 0 0 0 0 0 0 0 0 0 0 0 0 0 0 0 0 0 0 0 0
Wind_Speed
5 4 1 3 5 3 5 8 4 7 4 1 4 8 7 5 5 5 3 13 14 15 14 17 18 18 18 17 17 17 17 17 16 16 16 16 16 16 15 15 13 13 13 13 13 13 13 13 13
2 2 3 4 4 1 7 7 6 10 5 3 5 8 7 3 4 7 6 12 17 16 14 15 18 18 18 18 17 17 17 17 16 16 16 16 16 15 15 14 14 13 12 12 12 12 12 12 12
3 1 3 4 3 6 8 6 5 6 4 3 4 5 5 6 7 8 9 16 15 14 13 15 20 19 18 18 18 17 17 17 16 16 15 15 15 14 14 14 14 13 12 12 12 12 11 11 11
1 4 4 2 7 9 9 11 8 10 6 1 6 5 3 4 6 9 16 18 16 13 12 15 20 19 19 19 18 18 17 17 16 16 15 15 14 14 13 14 13 13 12 12 12 11 10 10 9
3 4 2 3 8 9 9 13 11 12 7 4 8 6 3 1 9 16 18 18 17 12 10 13 18 19 18 18 18 18 17 17 16 16 15 14 14 13 13 13 13 13 12 12 11 11 9 9 8
4 4 2 5 9 9 9 10 11 12 6 6 8 7 2 2 11 16 16 15 15 15 12 11 18 19 18 18 17 17 16 16 15 15 15 14 13 13 13 13 12 12 12 11 11 10 9 8 6
4 3 4 5 7 10 11 10 8 6 4 5 8 8 4 3 7 13 14 13 13 13 12 10 11 14 17 17 16 15 15 15 15 15 14 14 14 13 13 12 12 11 11 11 10 9 9 7 6
5 3 3 4 5 9 8 8 6 1 2 4 6 10 8 8 8 12 12 12 12 11 11 11 10 9 9 11 16 17 16 15 15 15 15 15 15 14 14 11 11 12 11 11 10 9 8 7 5
4 3 5 6 5 8 8 8 9 5 4 3 2 6 10 13 12 12 11 10 10 11 9 10 10 9 8 8 13 14 15 14 14 13 15 13 7 7 8 11 12 12 12 11 10 9 8 6 5
5 4 9 8 6 7 8 5 6 7 7 5 6 7 12 12 11 12 11 11 11 11 9 8 9 9 9 9 8 6 7 7 7 6 8 5 5 5 7 9 12 12 12 11 10 10 8 5 2
4 7 9 10 11 7 5 5 4 4 4 1 5 8 10 10 10 10 10 9 10 10 9 7 8 8 8 6 6 4 4 5 6 6 6 5 4 4 4 3 6 6 8 5 6 5 3 3 2
4 9 9 11 10 5 5 3 3 2 2 2 6 9 9 9 8 8 8 8 8 10 9 7 6 6 6 5 6 5 4 5 5 6 7 6 4 4 3 3 4 3 3 3 3 2 3 3 3
5 10 11 11 9 6 4 3 2 3 3 2 6 8 9 8 7 7 8 9 9 9 9 8 8 7 5 5 5 6 5 6 6 5 7 6 5 5 4 3 3 4 3 3 3 3 3 3 3
6 6 8 7 6 3 3 4 2 5 2 2 5 5 5 6 8 7 8 8 9 9 8 7 7 7 6 6 6 6 6 6 6 5 7 7 5 5 5 4 4 3 3 3 3 4 3 2 2
4 5 8 6 4 3 2 6 6 8 2 2 3 4 4 4 5 6 7 8 9 9 9 7 7 6 6 6 6 5 5 5 5 4 6 6 6 6 5 5 4 4 4 4 3 3 3 3 4
6 4 5 9 4 4 4 7 11 5 2 3 3 4 4 4 5 4 5 6 6 7 7 7 5 5 5 4 4 3 3 3 4 4 4 5 6 6 5 5 4 4 3 3 4 3 4 4 4
4 3 6 10 6 4 5 6 9 3 4 4 4 5 6 7 8 6 5 6 6 7 7 6 4 5 5 5 4 4 4 3 2 3 3 4 5 5 5 4 4 4 3 3 4 4 5 6 6
5 4 5 7 7 1 3 4 5 2 4 5 6 7 8 8 6 6 6 5 5 5 5 5 3 3 4 5 4 4 4 3 2 2 2 3 3 3 3 4 5 5 4 4 4 5 5 6 6
6 6 8 9 6 2 2 2 2 3 6 7 7 7 8 8 7 7 7 6 6 5 4 4 2 1 2 3 4 4 4 3 3 2 1 1 2 3 4 4 5 5 5 5 6 6 7 6 6
8 7 8 7 5 3 1 1 4 7 7 6 7 6 8 8 8 8 8 7 5 4 3 3 3 2 1 2 3 3 4 3 3 2 2 3 1 1 3 4 4 5 5 6 7 7 5 4 4
7 5 5 4 4 4 4 5 4 5 8 9 8 7 8 9 8 7 7 6 6 6 6 4 4 3 0 2 3 4 4 3 2 2 2 3 3 3 1 2 3 3 4 5 6 7 7 5 2
6 7 4 2 2 3 2 1 3 2 5 7 8 7 7 7 7 7 6 6 5 5 5 4 3 3 2 2 4 6 5 4 3 3 3 4 4 4 3 3 3 3 3 4 4 4 4 6 4
6 5 2 1 1 2 4 2 4 2 3 4 6 7 7 7 7 7 6 5 5 5 4 3 3 4 3 2 3 5 6 5 5 5 6 5 5 6 5 4 4 4 4 4 5 4 4 3 4
2 3 6 6 5 2 3 2 3 2 2 2 4 6 7 7 7 7 6 6 7 6 5 4 4 4 4 4 4 5 8 8 8 7 5 5 5 5 6 6 5 5 5 5 5 6 6 5 5
3 5 5 6 5 3 2 2 3 1 1 3 5 5 6 6 6 7 7 7 7 7 6 5 6 5 5 5 5 6 8 8 8 7 6 5 5 5 5 6 6 5 6 6 7 8 7 7 7
2 7 6 4 4 4 2 2 2 0 3 5 6 7 7 7 6 7 7 7 6 6 6 6 5 5 5 5 6 7 8 7 6 7 6 6 5 5 5 7 7 7 8 8 8 8 7 7 7
1 2 6 7 2 1 2 1 2 2 2 3 4 6 7 6 6 7 6 6 6 6 5 4 5 6 6 7 8 9 9 9 9 8 8 6 6 6 7 8 8 8 8 8 8 8 7 7 8
3 4 5 4 3 2 3 3 4 5 4 4 4 4 5 5 6 7 6 7 6 6 5 5 6 7 7 7 7 8 9 9 9 8 9 8 7 7 8 8 8 8 8 8 8 8 7 9 7
2 2 4 4 5 5 3 5 3 6 6 6 5 4 4 5 6 6 6 6 6 6 6 6 7 8 7 7 8 9 9 9 9 8 8 8 8 7 8 8 8 8 8 8 8 8 8 9 8
2 3 5 4 3 3 3 5 1 4 6 7 6 6 6 6 6 6 6 6 6 7 6 7 7 8 7 7 8 9 9 9 9 9 8 8 9 8 7 8 9 9 9 8 8 9 9 9 9
Wind_Direction
297 283 158 60 54 42 254 252 255 295 288 266 107 105 107 115 152 180 171 152 148 150 157 158 156 152 148 144 140 137 134 131 128 124 122 120 118 118 118 119 120 121 122 123 122 119 117 116 115
300 279 70 66 94 248 263 249 253 263 232 169 107 104 98 92 113 125 129 155 150 152 155 159 158 154 151 149 145 143 140 137 134 131 129 126 124 123 123 123 123 124 124 125 124 121 121 119 118
278 224 95 95 167 203 244 257 264 280 256 175 118 97 114 138 134 147 154 148 145 152 155 160 159 157 154 153 151 148 146 143 141 138 136 133 131 129 128 128 129 129 128 129 127 125 125 123 120
40 49 55 101 245 238 239 269 289 294 286 152 114 94 92 138 152 149 142 144 144 152 155 160 160 159 158 157 156 154 151 150 148 145 143 140 138 136 135 135 135 135 134 133 134 133 132 129 125
69 80 66 276 259 259 260 268 275 270 246 165 124 113 88 63 124 132 142 146 148 149 151 159 161 160 161 161 160 158 157 156 153 151 149 147 144 143 142 142 142 142 140 138 137 138 136 133 130
55 74 119 250 264 277 279 271 268 253 225 148 128 119 124 141 133 142 146 149 149 149 150 157 162 163 164 164 164 161 159 160 158 155 153 152 149 148 147 148 148 147 146 145 144 144 143 138 136
123 117 205 242 278 288 286 293 275 243 174 156 137 117 137 178 150 142 142 143 144 146 149 153 161 166 167 165 166 164 162 162 161 159 157 156 156 155 154 153 153 152 152 153 154 155 154 152 153
150 108 274 271 277 282 293 315 317 360 126 120 120 133 167 192 159 136 133 136 139 144 152 155 158 159 162 166 169 168 166 165 165 163 163 164 163 162 163 159 161 160 160 162 164 166 167 170 177
116 90 258 256 257 273 300 327 327 348 40 51 84 144 162 156 143 133 129 133 141 150 156 158 159 157 156 163 172 171 170 169 168 169 170 168 166 164 167 169 170 170 170 171 174 177 179 188 203
121 175 237 234 234 262 295 315 325 19 22 27 40 76 122 132 134 137 137 144 152 158 161 159 157 158 159 169 165 165 171 169 169 170 171 166 163 170 172 178 179 178 178 180 184 189 192 198 218
180 210 242 255 253 253 283 309 343 46 8 35 135 131 130 129 133 139 143 147 155 154 154 156 158 159 164 162 158 163 167 168 170 173 169 164 163 173 174 172 180 180 183 182 190 195 198 203 217
232 255 248 256 263 258 257 289 340 24 257 227 148 140 132 127 140 145 144 145 141 143 149 147 150 158 167 159 163 166 168 173 178 176 172 169 171 178 175 178 176 176 177 180 184 188 207 218 224
245 258 264 259 266 259 270 284 294 302 277 86 111 119 128 138 137 133 138 136 140 153 152 159 155 156 164 162 173 174 176 179 182 180 180 177 177 179 176 176 175 182 178 184 192 192 201 210 216
250 266 275 269 268 268 272 293 329 278 263 79 101 121 126 135 140 132 133 140 146 150 158 166 167 169 171 177 182 179 178 179 183 182 182 182 179 172 171 166 175 185 184 188 187 187 180 176 148
299 309 310 292 279 274 19 325 280 254 266 110 127 127 116 121 126 138 155 155 153 153 153 161 171 169 182 182 179 178 179 172 177 177 178 178 179 172 172 170 178 193 186 186 177 168 135 130 111
354 350 312 294 292 274 128 260 270 269 109 138 138 122 107 79 86 110 132 133 140 145 146 152 161 160 172 176 166 152 162 161 166 164 163 170 175 173 168 172 179 182 167 168 164 151 126 117 109
354 308 283 293 276 242 161 225 268 266 131 140 111 108 101 84 65 69 93 127 142 148 147 143 143 158 168 160 152 141 125 136 150 150 155 175 183 171 166 170 168 166 167 171 166 148 139 130 119
253 270 289 283 288 222 163 212 262 292 114 107 100 99 95 87 74 70 77 99 109 110 120 126 129 151 156 149 145 127 115 120 107 105 154 177 186 172 174 176 167 163 166 164 151 138 135 128 125
246 272 286 284 296 49 126 218 291 1 71 83 82 84 92 89 75 67 66 71 82 85 97 109 118 143 142 150 149 139 140 131 106 85 63 111 184 182 188 188 169 165 170 164 151 139 131 127 126
251 263 275 293 320 38 69 24 32 45 67 81 86 79 82 84 70 62 57 57 57 73 86 97 91 74 66 167 154 133 128 116 109 108 67 63 86 181 190 183 176 171 161 154 151 144 139 147 152
258 238 247 269 335 20 65 16 30 36 57 64 64 68 77 83 77 63 61 56 46 44 39 46 61 73 103 158 125 117 111 108 108 111 84 44 48 55 74 144 153 153 157 160 158 155 152 156 160
256 255 241 277 30 318 48 314 316 34 54 56 56 61 65 73 77 67 54 52 43 35 37 32 49 81 116 141 148 151 147 141 132 119 101 73 57 62 63 72 108 119 119 131 140 145 144 147 153
235 247 261 290 99 13 5 99 289 352 43 52 53 55 54 56 63 64 52 44 35 34 39 22 38 51 71 101 135 139 126 121 118 109 94 76 60 55 61 70 79 90 97 106 111 117 120 130 141
237 35 26 40 62 24 299 134 278 320 301 104 72 62 53 50 53 55 48 44 33 27 28 24 46 42 41 74 93 123 129 127 118 107 99 83 68 55 55 70 72 79 84 88 93 94 95 95 99
69 76 26 0 9 266 279 128 232 301 340 120 113 85 65 55 56 47 40 38 32 20 21 23 40 40 44 76 95 110 115 115 115 115 106 99 85 71 61 73 77 79 80 81 83 85 83 86 91
193 137 158 197 225 266 308 211 240 142 68 91 103 96 77 61 56 52 43 35 30 25 21 27 42 45 51 77 92 96 100 98 97 95 98 95 91 87 80 78 76 76 78 80 80 81 79 80 82
128 166 167 144 175 260 279 249 262 167 103 90 88 85 76 66 57 57 48 35 32 31 32 40 52 54 55 72 87 89 91 96 99 96 92 91 91 91 80 78 78 74 75 78 83 83 81 80 77
137 148 87 106 150 246 268 236 225 204 202 163 133 110 99 87 70 63 49 38 36 37 39 47 62 69 65 70 84 93 92 94 98 96 95 94 89 86 85 81 84 82 79 80 83 83 81 82 75
16 65 109 125 156 166 228 254 231 198 181 165 146 116 101 87 75 67 57 48 42 44 50 59 67 72 71 73 81 88 89 91 93 95 95 94 90 85 85 86 84 83 81 79 82 82 79 79 74
165 176 146 147 219 179 187 253 334 150 142 138 131 118 99 86 80 74 66 56 51 47 51 61 67 75 78 81 85 85 85 87 89 89 88 88 87 82 81 82 81 82 80 77 81 84 78 80 79